When you browse on this site, cookies collect data to enhance your experience and personalize the content and advertising you see.
Visit our Privacy Policy to learn more. By continuing to use the site, you agree to this use of cookies and data.
  • In Romania
  • List of Countries
  • For 7 days
  • Water Temperature
  • Satellite Maps
  • Weather Map
  • Weather Widgets
  • user-avatar
    Login

    Hourly Weather Columbus

    Today, 10 December, Monday

    Time Temperature Precipitation Wind Pressure Humidity
    00:00 -5°C° 0 mm 2 mps 746 mmHg 75%
    01:00 -6°C° 0 mm 2 mps 746 mmHg 75%
    02:00 -6°C° 0 mm 2 mps 746 mmHg 75%
    03:00 -6°C° 0 mm 2 mps 746 mmHg 75%
    04:00 -6°C° 0 mm 2 mps 746 mmHg 76%
    05:00 -6°C° 0 mm 2 mps 746 mmHg 77%
    06:00 -6°C° 0 mm 2 mps 746 mmHg 78%
    07:00 -5°C° 0 mm 2 mps 746 mmHg 74%
    08:00 -3°C° 0 mm 1 mps 746 mmHg 71%
    09:00 -2°C° 0 mm 1 mps 747 mmHg 68%
    10:00 0°C° 0 mm 1 mps 746 mmHg 63%
    11:00 +1°C° 0 mm 1 mps 746 mmHg 59%
    12:00 +2°C° 0 mm 1 mps 746 mmHg 54%
    13:00 +2°C° 0 mm 1 mps 746 mmHg 56%
    14:00 +2°C° 0 mm 1 mps 745 mmHg 57%
    15:00 +2°C° 0 mm 1 mps 745 mmHg 59%
    16:00 0°C° 0 mm 1 mps 745 mmHg 65%
    17:00 -1°C° 0 mm 1 mps 746 mmHg 70%
    18:00 -2°C° 0 mm 1 mps 746 mmHg 75%
    19:00 -2°C° 0 mm 1 mps 746 mmHg 76%
    20:00 -2°C° 0 mm 1 mps 746 mmHg 77%
    21:00 -2°C° 0 mm 1 mps 746 mmHg 78%
    22:00 -2°C° 0 mm 1 mps 746 mmHg 78%
    23:00 -5°C° 0 mm 2 mps 745 mmHg 78%

    Tomorrow, 11 December, Tuesday

    Time Temperature Precipitation Wind Pressure Humidity
    00:00 -5°C° 0 mm 2 mps 745 mmHg 78%
    01:00 -5°C° 0 mm 2 mps 745 mmHg 77%
    02:00 -6°C° 0 mm 3 mps 745 mmHg 77%
    03:00 -6°C° 0 mm 3 mps 745 mmHg 76%
    04:00 -6°C° 0 mm 3 mps 745 mmHg 75%
    05:00 -6°C° 0 mm 3 mps 745 mmHg 74%
    06:00 -6°C° 0 mm 3 mps 745 mmHg 73%
    07:00 -5°C° 0 mm 4 mps 745 mmHg 68%
    08:00 -4°C° 0 mm 4 mps 745 mmHg 64%
    09:00 -4°C° 0 mm 5 mps 745 mmHg 60%
    10:00 -2°C° 0 mm 5 mps 745 mmHg 57%
    11:00 -2°C° 0 mm 6 mps 744 mmHg 53%
    12:00 +1°C° 0 mm 6 mps 743 mmHg 50%
    13:00 +1°C° 0 mm 5 mps 743 mmHg 52%
    14:00 +1°C° 0 mm 5 mps 743 mmHg 53%
    15:00 +1°C° 0 mm 4 mps 742 mmHg 55%
    16:00 0°C° 0 mm 4 mps 743 mmHg 60%
    17:00 -1°C° 0 mm 3 mps 743 mmHg 65%
    18:00 -2°C° 0 mm 3 mps 744 mmHg 71%
    19:00 -2°C° 0 mm 3 mps 744 mmHg 73%
    20:00 -2°C° 0 mm 2 mps 744 mmHg 76%
    21:00 -3°C° 0 mm 2 mps 744 mmHg 79%
    22:00 -3°C° 0 mm 2 mps 744 mmHg 81%
    23:00 -3°C° 0 mm 2 mps 745 mmHg 83%

    Day after tomorrow, 12 December, Wednesday

    Time Temperature Precipitation Wind Pressure Humidity
    00:00 -1°C° 0 mm 1 mps 745 mmHg 85%
    01:00 -1°C° 0 mm 1 mps 745 mmHg 85%
    02:00 -2°C° 0 mm 1 mps 745 mmHg 86%
    03:00 -2°C° 0 mm 1 mps 745 mmHg 87%
    04:00 -2°C° 0 mm 1 mps 745 mmHg 87%
    05:00 -1°C° 0 mm 1 mps 745 mmHg 86%
    06:00 -1°C° 0 mm 1 mps 745 mmHg 86%
    07:00 -3°C° 0 mm 2 mps 745 mmHg 82%
    08:00 -2°C° 0 mm 2 mps 745 mmHg 79%
    09:00 -1°C° 0 mm 3 mps 745 mmHg 75%
    10:00 0°C° 0 mm 3 mps 745 mmHg 72%
    11:00 0°C° 0 mm 4 mps 744 mmHg 68%
    12:00 +1°C° 0 mm 4 mps 744 mmHg 65%
    13:00 +1°C° 0 mm 4 mps 743 mmHg 67%
    14:00 +1°C° 0 mm 4 mps 743 mmHg 69%
    15:00 0°C° 0 mm 5 mps 742 mmHg 71%
    16:00 0°C° 0 mm 5 mps 742 mmHg 74%
    17:00 -1°C° 0 mm 5 mps 742 mmHg 76%
    18:00 -1°C° 0 mm 5 mps 742 mmHg 79%
    19:00 -1°C° 0.3 mm 5 mps 742 mmHg 80%
    20:00 -1°C° 0.3 mm 4 mps 742 mmHg 82%
    21:00 0°C° 0.3 mm 4 mps 742 mmHg 83%
    22:00 0°C° 0 mm 4 mps 742 mmHg 84%
    23:00 -1°C° 0 mm 4 mps 742 mmHg 85%

    13 December, Thursday

    Time Temperature Precipitation Wind Pressure Humidity
    00:00 -1°C° 0 mm 4 mps 742 mmHg 86%
    01:00 -1°C° 0 mm 4 mps 742 mmHg 87%
    02:00 -1°C° 0 mm 4 mps 742 mmHg 87%
    03:00 -1°C° 0 mm 4 mps 742 mmHg 88%
    04:00 0°C° 0 mm 3 mps 743 mmHg 89%
    05:00 0°C° 0 mm 3 mps 743 mmHg 89%
    06:00 +1°C° 0 mm 3 mps 743 mmHg 90%
    07:00 +1°C° 0 mm 3 mps 744 mmHg 88%
    08:00 +2°C° 0 mm 3 mps 744 mmHg 86%
    09:00 +2°C° 0 mm 3 mps 744 mmHg 84%
    10:00 +3°C° 0 mm 3 mps 744 mmHg 83%
    11:00 +4°C° 0 mm 3 mps 744 mmHg 81%
    12:00 +5°C° 0 mm 3 mps 744 mmHg 80%
    13:00 +5°C° 0 mm 3 mps 743 mmHg 83%
    14:00 +4°C° 0 mm 3 mps 743 mmHg 85%
    15:00 +5°C° 0 mm 2 mps 743 mmHg 88%
    16:00 +4°C° 0.1 mm 3 mps 743 mmHg 89%
    17:00 +3°C° 0.1 mm 3 mps 743 mmHg 90%
    18:00 +3°C° 0.1 mm 3 mps 743 mmHg 91%
    19:00 +2°C° 0 mm 3 mps 743 mmHg 90%
    20:00 +2°C° 0 mm 3 mps 742 mmHg 88%
    21:00 +2°C° 0 mm 3 mps 742 mmHg 87%
    22:00 +1°C° 0 mm 3 mps 742 mmHg 86%
    23:00 +1°C° 0 mm 3 mps 741 mmHg 85%

    14 December, Friday

    Time Temperature Precipitation Wind Pressure Humidity
    00:00 +1°C° 0 mm 3 mps 741 mmHg 85%
    01:00 +1°C° 0 mm 3 mps 741 mmHg 86%
    02:00 +1°C° 0 mm 3 mps 740 mmHg 87%
    03:00 +2°C° 0 mm 2 mps 740 mmHg 87%
    04:00 +3°C° 0.1 mm 2 mps 740 mmHg 87%
    05:00 +3°C° 0.1 mm 2 mps 740 mmHg 86%
    06:00 +3°C° 0.1 mm 2 mps 740 mmHg 85%
    07:00 +3°C° 0.9 mm 2 mps 740 mmHg 88%
    08:00 +4°C° 0.9 mm 2 mps 739 mmHg 91%
    09:00 +4°C° 0.9 mm 2 mps 739 mmHg 94%
    10:00 +4°C° 1.6 mm 2 mps 739 mmHg 95%
    11:00 +5°C° 1.6 mm 2 mps 738 mmHg 96%
    12:00 +5°C° 1.6 mm 2 mps 737 mmHg 97%
    13:00 +4°C° 0.6 mm 3 mps 737 mmHg 97%
    14:00 +4°C° 0.6 mm 3 mps 737 mmHg 97%
    15:00 +5°C° 0.6 mm 3 mps 737 mmHg 97%
    16:00 +5°C° 0.5 mm 3 mps 737 mmHg 97%
    17:00 +5°C° 0.5 mm 4 mps 737 mmHg 97%
    18:00 +4°C° 0.5 mm 4 mps 737 mmHg 96%
    19:00 +3°C° 0.4 mm 5 mps 737 mmHg 96%
    20:00 +3°C° 0.4 mm 5 mps 737 mmHg 95%
    21:00 +3°C° 0.4 mm 5 mps 737 mmHg 94%
    22:00 +3°C° 0.3 mm 6 mps 737 mmHg 94%
    23:00 +3°C° 0.3 mm 6 mps 737 mmHg 93%

    15 December, Saturday

    Time Temperature Precipitation Wind Pressure Humidity
    00:00 +3°C° 0.3 mm 6 mps 737 mmHg 93%
    01:00 +3°C° 0.2 mm 6 mps 737 mmHg 92%
    02:00 +3°C° 0.2 mm 7 mps 737 mmHg 90%
    03:00 +3°C° 0.2 mm 7 mps 737 mmHg 89%
    04:00 +3°C° 0.2 mm 7 mps 738 mmHg 88%
    05:00 +3°C° 0.2 mm 7 mps 738 mmHg 88%
    06:00 +3°C° 0.2 mm 7 mps 739 mmHg 87%
    07:00 +3°C° 0.1 mm 7 mps 739 mmHg 86%
    08:00 +3°C° 0.1 mm 7 mps 740 mmHg 85%
    09:00 +2°C° 0.1 mm 8 mps 740 mmHg 84%
    10:00 +4°C° 0 mm 8 mps 740 mmHg 81%
    11:00 +4°C° 0 mm 7 mps 740 mmHg 78%
    12:00 +5°C° 0 mm 7 mps 740 mmHg 75%
    13:00 +5°C° 0 mm 7 mps 740 mmHg 73%
    14:00 +5°C° 0 mm 7 mps 741 mmHg 71%
    15:00 +4°C° 0 mm 6 mps 741 mmHg 69%
    16:00 +3°C° 0 mm 6 mps 741 mmHg 71%
    17:00 +2°C° 0 mm 5 mps 742 mmHg 73%
    18:00 +1°C° 0 mm 5 mps 742 mmHg 75%
    19:00 +1°C° 0 mm 4 mps 743 mmHg 76%
    20:00 0°C° 0 mm 4 mps 743 mmHg 77%
    21:00 +1°C° 0 mm 3 mps 744 mmHg 79%
    22:00 0°C° 0 mm 3 mps 744 mmHg 79%
    23:00 +1°C° 0 mm 2 mps 744 mmHg 79%
    Show more